Regional Weather Roundup
Issued by NWS

Home | Current Version | Previous Version | Text Only | Print | Product List | Glossary Off
Versions: 1 2 3 4 5 6 7 8 9 10 11 12 13 14 15 16 17 18 19 20 21 22 23 24 25 26 27 28 29 30 31 32 33 34 35 36 37 38 39 40 41 42 43 44 45 46 47 48 49 50

000
ASUS43 KLSX 280107
RWRMO

WEATHER SUMMARY FOR MISSOURI
NATIONAL WEATHER SERVICE SPRINGFIELD MO
800 PM CDT THU AUG 27 2015

NOTE: "FAIR" INDICATES FEW OR NO CLOUDS BELOW 12,000 FEET WITH NO
       SIGNIFICANT WEATHER AND/OR OBSTRUCTIONS TO VISIBILITY.
       CURRENT SKY AND/OR WEATHER CONDITIONS ARE NOT AVAILABLE FOR
       CHILLICOTHE AND FARMINGTON.

MOZ001>031-035>038-043-044-053-054-280200-
...NORTHERN AND WESTERN MISSOURI...

CITY           SKY/WX    TMP DP  RH WIND       PRES   REMARKS
KANSAS CTY INT MOCLDY    72  64  76 SE12      29.97S
KANSAS C DTWN  MOCLDY    73  65  75 SE9       29.96S
LEE`S SUMMIT   PTCLDY    71  64  78 SE7       29.99S
ST JOSEPH      MOCLDY    73  66  78 SE10      29.95R
CHILLICOTHE      N/A     73  63  70 SE6       30.00F
KIRKSVILLE     PTCLDY    68  59  73 SE7       30.05F

$$
MOZ066>068-077>081-088>096-101>105-280200-
...SOUTHWEST MISSOURI...

CITY           SKY/WX    TMP DP  RH WIND       PRES   REMARKS
SPRINGFIELD    MOCLDY    72  62  71 SE8       30.03R
JOPLIN         MOCLDY    74  67  78 S8        30.00F

$$
MOZ032>034-039>042-045>050-055>058-069>072-280200-
...CENTRAL MISSOURI...

CITY           SKY/WX    TMP DP  RH WIND       PRES   REMARKS
COLUMBIA       MOCLDY    68  62  81 SE7       30.04F
JEFFERSON CITY MOCLDY    71  62  73 E3        30.03F
ROLLA          PTCLDY    67  60  78 SE7       30.05F
SEDALIA        PTCLDY    71  62  73 SE8       30.02F
WHITEMAN AFB   MOCLDY    71  65  79 SE8       29.99F
WARRENSBURG    PTCLDY    72  63  73 E8        29.99F
OSAGE BEACH    MOCLDY    66  61  82 CALM      30.05F

$$
MOZ051-052-059>065-280200-
...EAST CENTRAL MISSOURI...

CITY           SKY/WX    TMP DP  RH WIND       PRES   REMARKS
ST LOUIS INTL  CLOUDY    74  56  53 E7        30.07F
SPIRIT OF STL  CLEAR     68  63  84 CALM      30.06S
ST CHARLES     CLEAR     70  61  73 CALM      30.06F

$$
MOZ072>076-082>087-097>100-106>115-280200-
...SOUTH CENTRAL AND SOUTHEAST MISSOURI...

CITY           SKY/WX    TMP DP  RH WIND       PRES   REMARKS
CAPE GIRARDEAU CLEAR     69  61  75 CALM      30.07S
FARMINGTON     PTCLDY    66  61  82 E3        30.11R
POPLAR BLUFF   PTCLDY    69  63  81 N3        30.06R
WEST PLAINS    CLOUDY    71  59  65 SE6       30.08F

$$



USA.gov is the U.S. government's official web portal to all federal, state and local government web resources and services.